C/2016 VZ18 ( PanSTARRS )

Japanese version
Home page
Updated on July 8, 2017

---------------------------------------------------------------------

* Profile

Discovery Date November 6, 2016
Magnitude 21.8 mag
Discoverer Pan-STARRS 1 telescope (Haleakala)

* Pictures

* Orbital Elements

Epoch 2017 Feb. 16.0 TT = JDT 2457800.5
T 2017 Mar. 7.38008 TT                                  MPCW
q   0.9102662            (2000.0)            P               Q
z  +0.0051387      Peri.   36.38620     -0.66049091     -0.63393479
 +/-0.0000015      Node    98.95470     +0.55611968     -0.77306720
e   0.9953225      Incl.   24.03569     +0.50446274     +0.02222110
From 327 observations 2016 Oct. 8-2017 May 29, mean residual 0".5.

* Finding Charts

* Magnitudes Graph

        m1 = 18.0 + 5 log d + 10.0 log r  [   ,-35]  (             - 2017 Jan. 31)
        m1 = 16.0 + 5 log d + 55   log r  [-35, 35]  (2017 Jan. 31 - 2017 Apr. 11)
        m1 = 18.0 + 5 log d + 10.0 log r  [ 35,   ]  (2017 Apr. 11 -             )

---------------------------------------------------------------------

The orbital elements are published on M.P.E.C. 2017-N58.
The charts are made with StellaNavigator Ver.10 (AstroArts).
The magnitudes graphs are made with Comet for Windows.

---------------------------------------------------------------------

Copyright(C) Seiichi Yoshida (comet@aerith.net). All rights reserved.